Weather History for Wadesboro, NC

Change the Weather History Date:

Friday, May 24, 2013

  Actual Average (KCLT) Record (KCLT)
Temperature  
Mean Temperature 63 °F 70 °F  
Max Temperature 74 °F 81 °F 95 °F (1939)
Min Temperature 48 °F 58 °F 43 °F (1931)
Degree Days  
Heating Degree Days 2 1  
Month to date heating degree days 48  
Since 1 July heating degree days 3380  
Cooling Degree Days 0 5  
Month to date cooling degree days 81  
Year to date cooling degree days 118  
Growing Degree Days 13 (Base 50)    
Moisture  
Dew Point 51 °F    
Average Humidity 63    
Maximum Humidity 97    
Minimum Humidity 25    
Precipitation  
Precipitation 0.10 in 0.11 in 1.03 in (2009)
Month to date precipitation 2.38  
Year to date precipitation 16.16  
Snow  
Snow 0.00 in 0.00 in 0.00 in ()
Month to date snowfall 0.0  
Since 1 July snowfall 4.3  
Snow Depth -    
Sea Level Pressure  
Sea Level Pressure 30.00 in    
Wind  
Wind Speed 6 mph (NW)    
Max Wind Speed 20 mph    
Max Gust Speed 31 mph    
Visibility 10 miles    
Events Rain    
T = Trace of Precipitation, MM = Missing Value Source: NWS Daily Summary

Daily Weather History Graph

Daily Weather History Graph

Search for Another Location

Airport:

Trip Planner

Search our weather history database for the weather conditions in past years. The results will help you decide how hot, cold, wet, or windy it might be!

Date:

Astronomy

May. 24, 2013 Rise Set
Actual Time 6:10 AM EDT 8:23 PM EDT
Civil Twilight 5:42 AM EDT 8:52 PM EDT
Nautical Twilight 5:06 AM EDT 9:27 PM EDT
Astronomical Twilight 4:28 AM EDT 10:06 PM EDT
Moon 8:05 PM EDT (5/24) 5:39 AM EDT (5/24)
Length of Visible Light 15h 10m
Length of Day
14h 13m
Full, 100% of the Moon is Illuminated
May 24
Full
May 25
Full
May 31
Last Quarter
Jun 8
New
Jun 16
First Quarter

Hourly Weather History & Observations

Time (EDT) Temp. Dew Point Humidity Pressure Visibility Wind Dir Wind Speed Gust Speed Precip Events Conditions
12:15 AM 68.4 °F 63.5 °F 84% 29.90 in 5.0 mi NNW 13.8 mph - 0.08 in Rain Light Rain
12:35 AM 66.2 °F 63.0 °F 89% 29.90 in 10.0 mi North 3.5 mph - 0.08 in   Overcast
12:55 AM 65.3 °F 62.8 °F 92% 29.89 in 7.0 mi Calm Calm - 0.10 in Rain Light Rain
1:15 AM 64.9 °F 62.8 °F 93% 29.88 in 10.0 mi Calm Calm - N/A   Mostly Cloudy
1:35 AM 64.6 °F 63.1 °F 95% 29.86 in 10.0 mi Calm Calm - N/A   Mostly Cloudy
1:55 AM 63.9 °F 62.8 °F 96% 29.86 in 10.0 mi Calm Calm - N/A   Scattered Clouds
2:15 AM 63.5 °F 62.6 °F 97% 29.85 in 4.0 mi Calm Calm - N/A   Scattered Clouds
2:35 AM 63.3 °F 62.4 °F 97% 29.85 in 2.5 mi Calm Calm - N/A   Scattered Clouds
2:55 AM 63.0 °F 62.2 °F 97% 29.84 in 4.0 mi Calm Calm - N/A   Scattered Clouds
3:15 AM 63.5 °F 62.6 °F 97% 29.85 in 10.0 mi Calm Calm - N/A   Scattered Clouds
3:35 AM 63.1 °F 62.2 °F 97% 29.85 in 10.0 mi Calm Calm - N/A   Clear
3:55 AM 63.0 °F 62.1 °F 97% 29.85 in 10.0 mi Calm Calm - N/A   Clear
4:15 AM 62.8 °F 61.9 °F 97% 29.86 in 10.0 mi Calm Calm - N/A   Clear
4:35 AM 62.6 °F 61.5 °F 96% 29.87 in 10.0 mi Calm Calm - N/A   Scattered Clouds
4:55 AM 62.6 °F 61.3 °F 96% 29.87 in 10.0 mi Calm Calm - N/A   Scattered Clouds
5:15 AM 62.1 °F 60.8 °F 96% 29.87 in 10.0 mi WNW 3.5 mph - N/A   Clear
5:35 AM 62.1 °F 60.8 °F 96% 29.88 in 10.0 mi Calm Calm - N/A   Scattered Clouds
5:55 AM 61.9 °F 60.8 °F 96% 29.89 in 10.0 mi Calm Calm - N/A   Scattered Clouds
6:15 AM 61.7 °F 60.1 °F 94% 29.90 in 10.0 mi West 3.5 mph - N/A   Scattered Clouds
6:35 AM 61.7 °F 59.0 °F 91% 29.91 in 10.0 mi West 3.5 mph - N/A   Scattered Clouds
6:55 AM 62.1 °F 59.0 °F 90% 29.91 in 10.0 mi West 3.5 mph - N/A   Overcast
7:15 AM 62.4 °F 59.0 °F 89% 29.91 in 10.0 mi Calm Calm - N/A   Overcast
7:35 AM 62.2 °F 59.4 °F 90% 29.91 in 10.0 mi Calm Calm - N/A   Mostly Cloudy
7:55 AM 63.9 °F 59.9 °F 87% 29.92 in 10.0 mi West 3.5 mph - N/A   Mostly Cloudy
8:15 AM 64.2 °F 60.1 °F 86% 29.93 in 10.0 mi West 4.6 mph - N/A   Overcast
8:35 AM 65.8 °F 60.8 °F 84% 29.93 in 10.0 mi WNW 4.6 mph - N/A   Scattered Clouds
8:55 AM 68.4 °F 60.8 °F 77% 29.95 in 10.0 mi NW 5.8 mph - N/A   Clear
9:15 AM 70.2 °F 60.4 °F 71% 29.95 in 10.0 mi NW 6.9 mph - N/A   Clear
9:35 AM 71.1 °F 58.1 °F 63% 29.96 in 10.0 mi NW 10.4 mph 16.1 mph N/A   Clear
9:55 AM 71.8 °F 58.5 °F 63% 29.97 in 10.0 mi WNW 9.2 mph 17.3 mph N/A   Clear
10:15 AM 72.9 °F 57.6 °F 59% 29.98 in 10.0 mi WNW 10.4 mph 16.1 mph N/A   Clear
10:35 AM 73.6 °F 55.6 °F 53% 29.98 in 10.0 mi NW 11.5 mph 18.4 mph N/A   Clear
10:55 AM 74.1 °F 55.8 °F 53% 29.99 in 10.0 mi NW 17.3 mph 23.0 mph N/A   Scattered Clouds
11:15 AM 71.8 °F 52.9 °F 51% 30.00 in 10.0 mi WNW 13.8 mph 20.7 mph N/A   Overcast
11:35 AM 72.3 °F 54.3 °F 53% 30.01 in 10.0 mi WNW 11.5 mph 19.6 mph N/A   Mostly Cloudy
11:55 AM 72.1 °F 49.1 °F 44% 30.02 in 10.0 mi NW 17.3 mph 26.5 mph N/A   Mostly Cloudy
12:15 PM 72.3 °F 48.6 °F 43% 30.02 in 10.0 mi NW 12.7 mph - N/A   Mostly Cloudy
12:35 PM 74.1 °F 46.8 °F 38% 30.03 in 10.0 mi WNW 17.3 mph 31.1 mph N/A   Scattered Clouds
12:55 PM 74.8 °F 44.4 °F 34% 30.03 in 10.0 mi NW 17.3 mph 28.8 mph N/A   Clear
1:15 PM 74.7 °F 45.5 °F 35% 30.03 in 10.0 mi NW 13.8 mph 23.0 mph N/A   Clear
1:35 PM 73.9 °F 44.1 °F 34% 30.04 in 10.0 mi NW 16.1 mph 25.3 mph N/A   Scattered Clouds
1:55 PM 73.6 °F 44.6 °F 35% 30.04 in 10.0 mi NW 13.8 mph 19.6 mph N/A   Scattered Clouds
2:15 PM 73.0 °F 46.4 °F 39% 30.05 in 10.0 mi NNW 15.0 mph 23.0 mph N/A   Mostly Cloudy
2:35 PM 72.3 °F 45.0 °F 37% 30.05 in 10.0 mi NW 13.8 mph 21.9 mph N/A   Mostly Cloudy
2:55 PM 72.9 °F 42.3 °F 33% 30.05 in 10.0 mi NW 16.1 mph 20.7 mph N/A   Scattered Clouds
3:15 PM 73.4 °F 42.6 °F 33% 30.05 in 10.0 mi NW 19.6 mph 24.2 mph N/A   Scattered Clouds
3:35 PM 73.4 °F 41.4 °F 31% 30.06 in 10.0 mi WNW 11.5 mph 21.9 mph N/A   Clear
3:55 PM 73.4 °F 41.7 °F 32% 30.05 in 10.0 mi NNW 15.0 mph 23.0 mph N/A   Clear
4:15 PM 73.8 °F 39.0 °F 28% 30.06 in 10.0 mi NNW 18.4 mph - N/A   Clear
4:35 PM 73.4 °F 37.4 °F 27% 30.06 in 10.0 mi North 18.4 mph - N/A   Clear
4:55 PM 73.9 °F 37.0 °F 26% 30.07 in 10.0 mi NNW 13.8 mph 20.7 mph N/A   Clear
5:15 PM 73.4 °F 36.1 °F 26% 30.07 in 10.0 mi NW 8.1 mph 20.7 mph N/A   Clear
5:35 PM 72.7 °F 35.1 °F 25% 30.08 in 10.0 mi NW 11.5 mph 17.3 mph N/A   Clear
5:55 PM 72.7 °F 36.7 °F 27% 30.08 in 10.0 mi NNW 8.1 mph 17.3 mph N/A   Clear
6:15 PM 72.3 °F 35.8 °F 26% 30.08 in 10.0 mi NW 11.5 mph - N/A   Clear
6:35 PM 71.6 °F 36.1 °F 27% 30.09 in 10.0 mi NW 12.7 mph 17.3 mph N/A   Clear
6:55 PM 71.1 °F 37.4 °F 29% 30.09 in 10.0 mi NNW 8.1 mph - N/A   Clear
7:15 PM 70.2 °F 36.9 °F 30% 30.10 in 10.0 mi North 10.4 mph - N/A   Clear
7:35 PM 68.5 °F 38.8 °F 34% 30.11 in 10.0 mi North 4.6 mph - N/A   Clear
7:55 PM 66.4 °F 41.4 °F 40% 30.11 in 10.0 mi North 3.5 mph - N/A   Clear
8:15 PM 63.9 °F 44.2 °F 49% 30.12 in 10.0 mi Calm Calm - N/A   Clear
8:35 PM 62.6 °F 42.1 °F 47% 30.13 in 10.0 mi Calm Calm - N/A   Clear
8:55 PM 60.4 °F 44.4 °F 56% 30.13 in 10.0 mi Calm Calm - N/A   Clear
9:15 PM 57.7 °F 45.7 °F 64% 30.14 in 10.0 mi NW 3.5 mph - N/A   Clear
9:35 PM 57.7 °F 43.3 °F 59% 30.15 in 10.0 mi NW 5.8 mph - N/A   Clear
9:55 PM 58.8 °F 42.1 °F 54% 30.16 in 10.0 mi NW 5.8 mph - N/A   Clear
10:15 PM 56.3 °F 43.2 °F 61% 30.17 in 10.0 mi North 5.8 mph - N/A   Clear
10:35 PM 56.1 °F 42.1 °F 59% 30.18 in 10.0 mi NW 5.8 mph - N/A   Clear
10:55 PM 53.2 °F 44.8 °F 73% 30.19 in 10.0 mi Calm Calm - N/A   Clear
11:15 PM 55.4 °F 42.1 °F 61% 30.19 in 10.0 mi Calm Calm - N/A   Clear
11:35 PM 52.9 °F 43.7 °F 71% 30.19 in 10.0 mi North 3.5 mph - N/A   Clear
11:55 PM 48.9 °F 45.7 °F 89% 30.19 in 10.0 mi Calm Calm - N/A   Clear